Regional Weather Roundup
Issued by NWS Little Rock, AR

Home | Current Version | Previous Version | Text Only | Print | Product List | Glossary Off
Versions: 1 2 3 4 5 6 7 8 9 10 11 12 13 14 15 16 17 18 19 20 21 22 23 24 25 26 27 28 29 30 31 32 33 34 35 36 37 38 39 40 41 42 43 44 45 46 47 48 49 50

000
ASUS44 KLZK 301105
RWRLZK

WEATHER ROUNDUP FOR ARKANSAS
NATIONAL WEATHER SERVICE LITTLE ROCK AR
600 AM CDT SAT AUG 30 2014

NOTE: "FAIR" INDICATES FEW OR NO CLOUDS BELOW 12,000 FEET WITH NO
SIGNIFICANT WEATHER AND/OR OBSTRUCTIONS TO VISIBILITY.

ARZ001-003-010-029-301200-
NORTHWEST ARKANSAS

CITY           SKY/WX    TMP DP  RH WIND       PRES   REMARKS
FAYETTEVILLE   MOCLDY    71  70  96 NW9       29.99R
FORT SMITH     CLOUDY    73  71  93 E5        29.95S
HARRISON       MOCLDY    71  69  93 SE9       29.99S
BENTONVILLE    CLOUDY    72  68  88 S5        29.99R
ROGERS         HVY RAIN  71  68  90 S15G22    30.00R FOG
SILOAM SPGS    PTCLDY    70  63  78 S7        29.98S
HIGHFILL       MOCLDY    71  69  93 S3        29.97S
SPRINGDALE     MOCLDY    73  70  88 S12       30.00
$$

ARZ004-005-016-301200-
NORTH CENTRAL ARKANSAS

CITY           SKY/WX    TMP DP  RH WIND       PRES   REMARKS
BATESVILLE     CLOUDY    72  70  94 S5        29.98S
FLIPPIN        MOCLDY    70  64  83 CALM      29.97F
MTN HOME       MOCLDY    71  69  93 S5        29.97S
$$

ARZ040-041-301200-
WEST CENTRAL ARKANSAS

CITY           SKY/WX    TMP DP  RH WIND       PRES   REMARKS
MENA           PTCLDY    73  70  88 CALM      30.00S
MOUNT IDA      CLOUDY    73  70  90 CALM      29.97S
$$

ARZ009-017-025-026-028-301200-
NORTHEAST ARKANSAS

CITY           SKY/WX    TMP DP  RH WIND       PRES   REMARKS
CORNING          N/A     73  73 100 CALM      29.98F
JONESBORO      CLOUDY    73  72  96 CALM      29.99R
NEWPORT        CLOUDY    73  72  97 S6        29.99F
WALNUT RIDGE   CLOUDY    73  70  88 S5        29.98S
BLYTHEVILLE    CLOUDY    75  73  93 S6        29.99S
$$

ARZ022-023-033-042-044-301200-
CENTRAL ARKANSAS

CITY           SKY/WX    TMP DP  RH WIND       PRES   REMARKS
LITTLE ROCK    CLOUDY    76  71  85 S8        29.99S
N LITTLE ROCK    N/A     75  73  93 SW6       29.99S
JACKSONVILLE   CLOUDY    75  73  93 S6        29.99R
SEARCY         CLOUDY    73  73 100 SW3       30.00R
HOT SPRINGS    CLOUDY    76  71  85 S5        30.00R
RUSSELLVILLE   CLOUDY    73  71  93 CALM      29.97S
CLINTON        MOCLDY    73  73 100 CALM      30.00R FOG
$$

ARZ036-301200-
EAST ARKANSAS

CITY           SKY/WX    TMP DP  RH WIND       PRES   REMARKS
WEST MEMPHIS   LGT RAIN  76  74  93 S6        29.99R
$$

ARZ050-053-066-070-073-301200-
SOUTHWEST ARKANSAS

CITY           SKY/WX    TMP DP  RH WIND       PRES   REMARKS
ARKADELPHIA    FAIR      75  75 100 CALM      29.99S
CAMDEN         LGT RAIN  75  72  88 CALM      29.99S
TEXARKANA      CLOUDY    76  72  87 S5        29.98R
EL DORADO      LGT RAIN  74  73  97 S5        29.99S
DE QUEEN       FOG       70  70 100 CALM      29.96S VSB 1
$$

ARZ056-057-069-301200-
SOUTHEAST ARKANSAS

CITY           SKY/WX    TMP DP  RH WIND       PRES   REMARKS
PINE BLUFF     LGT RAIN  75  72  90 SW3       30.01R
STUTTGART      CLOUDY    75  72  88 SW6       30.02R
MONTICELLO     LGT RAIN  76  74  93 SW5       30.00S

$$




USA.gov is the U.S. government's official web portal to all federal, state and local government web resources and services.